map of KUA home
Great Circle Mapper logo
KUA - Airport
Location
City:  Kuantan, Pahang, Malaysia
Name:Sultan Abmad Shah Airport
Old (Alt.):Pedang Geroda Airport
ICAO / IATA:WMKD / KUA

Details
Type:Airport (Aerodrome, Airfield)
Use:Military
Latitude:346'31"N (3.775389)
Longitude:10312'33"E (103.209056)
Datum:WGS 1984
Elevation:58 ft (18 m)
Variation:0.1E (WMM2015 magnetic declination)
Runways:1
Longest:9200 × 150 ft (2804 × 45.5 m), paved

Time
Time Zone:UTC+8
Local Time:

Weather
METAR:WMKD 212100Z 15006G16KT 1000 +TSRA FEW003 FEW016CB SCT023 BKN130 24/23 Q1007 NOSIG

Related Locations
Nearby:
Farthest:SPGB: 12379 mi / 19922 km
Galilea, PE

Find:

   beyond  
but within

Other Information
Maps:
NOTAMs:
Links:
Sources:

  
flag of Malaysia   

Sectional Chart

Flight Planning
at skyvector.com

Satellite Image

Google Maps Satellite View

 

Copyright © 2004-2014 Karl L. Swartz. All rights reserved.
The Great Circle Mapper name and logo are trademarks of the Great Circle Mapper.
All other trademarks mentioned herein belong to their respective owners.
Please see credits for attibutions and further copyright information.

  Follow gcmap on Facebook Follow gcmap on Twitter

hCard Microformat

Geo Microformat